TimeCDT,TemperatureF,Dew PointF,Humidity,Sea Level PressureIn,VisibilityMPH,Wind Direction,Wind SpeedMPH,Gust SpeedMPH,PrecipitationIn,Events,Conditions,WindDirDegrees,DateUTC
12:15 AM,50.5,49.6,97,30.23,10.0,Calm,Calm,-,N/A,,Clear,0,2013-09-06 05:15:00
12:35 AM,50.2,49.3,97,30.23,10.0,Calm,Calm,-,N/A,,Clear,0,2013-09-06 05:35:00
12:55 AM,50.2,49.1,96,30.23,10.0,Calm,Calm,-,N/A,,Clear,0,2013-09-06 05:55:00
1:15 AM,48.9,48.0,97,30.23,10.0,Calm,Calm,-,N/A,,Clear,0,2013-09-06 06:15:00
1:35 AM,48.7,48.0,97,30.22,10.0,Calm,Calm,-,N/A,,Clear,0,2013-09-06 06:35:00
1:55 AM,48.2,47.3,97,30.23,7.0,Calm,Calm,-,N/A,,Clear,0,2013-09-06 06:55:00
2:15 AM,48.2,47.5,97,30.23,10.0,Calm,Calm,-,N/A,,Clear,0,2013-09-06 07:15:00
2:35 AM,48.6,47.8,97,30.23,10.0,Calm,Calm,-,N/A,,Clear,0,2013-09-06 07:35:00
2:55 AM,48.4,47.5,97,30.23,10.0,Calm,Calm,-,N/A,,Clear,0,2013-09-06 07:55:00
3:15 AM,48.4,47.5,97,30.23,10.0,Calm,Calm,-,N/A,,Clear,0,2013-09-06 08:15:00
3:35 AM,47.7,46.6,96,30.23,10.0,Calm,Calm,-,N/A,,Clear,0,2013-09-06 08:35:00
3:55 AM,47.7,46.8,97,30.23,10.0,Calm,Calm,-,N/A,,Clear,0,2013-09-06 08:55:00
4:15 AM,47.7,46.6,96,30.23,10.0,Calm,Calm,-,N/A,,Clear,0,2013-09-06 09:15:00
4:35 AM,47.1,45.9,95,30.24,10.0,Calm,Calm,-,N/A,,Clear,0,2013-09-06 09:35:00
4:55 AM,46.4,45.5,97,30.23,10.0,Calm,Calm,-,N/A,,Clear,0,2013-09-06 09:55:00
5:15 AM,46.4,45.3,96,30.23,10.0,Calm,Calm,-,N/A,,Clear,0,2013-09-06 10:15:00
5:35 AM,46.2,45.0,95,30.24,10.0,Calm,Calm,-,N/A,,Clear,0,2013-09-06 10:35:00
5:55 AM,46.8,45.3,95,30.23,10.0,Calm,Calm,-,N/A,,Clear,0,2013-09-06 10:55:00
6:15 AM,46.9,45.5,95,30.24,10.0,Calm,Calm,-,N/A,,Scattered Clouds,0,2013-09-06 11:15:00
6:35 AM,47.3,45.7,94,30.25,10.0,ENE,3.5,-,N/A,,Clear,60,2013-09-06 11:35:00
6:55 AM,47.5,45.9,94,30.25,10.0,Calm,Calm,-,N/A,,Clear,0,2013-09-06 11:55:00
7:15 AM,48.7,46.9,93,30.25,10.0,Calm,Calm,-,N/A,,Clear,0,2013-09-06 12:15:00
7:35 AM,51.4,49.5,93,30.25,10.0,Calm,Calm,-,N/A,,Scattered Clouds,0,2013-09-06 12:35:00
7:55 AM,53.8,50.9,90,30.25,10.0,ESE,4.6,-,N/A,,Scattered Clouds,110,2013-09-06 12:55:00
8:15 AM,56.8,52.9,87,30.24,10.0,SE,4.6,-,N/A,,Clear,140,2013-09-06 13:15:00
8:35 AM,59.9,53.4,79,30.23,10.0,SSE,8.1,-,N/A,,Clear,150,2013-09-06 13:35:00
8:55 AM,62.6,53.2,71,30.23,10.0,SSE,5.8,-,N/A,,Clear,150,2013-09-06 13:55:00
9:15 AM,64.6,52.5,65,30.23,10.0,SSE,6.9,-,N/A,,Clear,160,2013-09-06 14:15:00
9:35 AM,66.4,52.0,60,30.23,10.0,SSE,10.4,-,N/A,,Clear,150,2013-09-06 14:35:00
9:55 AM,67.8,51.3,55,30.23,10.0,South,6.9,-,N/A,,Clear,170,2013-09-06 14:55:00
10:15 AM,69.3,51.3,53,30.23,10.0,South,8.1,-,N/A,,Clear,170,2013-09-06 15:15:00
10:35 AM,70.5,49.5,47,30.22,10.0,SSE,8.1,-,N/A,,Clear,160,2013-09-06 15:35:00
10:55 AM,71.4,48.9,45,30.22,10.0,South,6.9,-,N/A,,Clear,170,2013-09-06 15:55:00
11:15 AM,72.7,49.6,44,30.21,10.0,South,6.9,-,N/A,,Clear,180,2013-09-06 16:15:00
11:35 AM,74.1,49.5,42,30.21,10.0,SSE,4.6,-,N/A,,Clear,160,2013-09-06 16:35:00
11:55 AM,75.2,49.6,41,30.20,10.0,SSW,4.6,-,N/A,,Clear,200,2013-09-06 16:55:00
12:15 PM,76.6,50.2,39,30.20,10.0,South,4.6,-,N/A,,Clear,180,2013-09-06 17:15:00
12:35 PM,77.0,51.3,40,30.19,10.0,SSE,5.8,-,N/A,,Clear,160,2013-09-06 17:35:00
12:55 PM,77.9,52.2,41,30.19,10.0,SSW,6.9,-,N/A,,Scattered Clouds,210,2013-09-06 17:55:00
1:15 PM,78.4,53.1,41,30.18,10.0,SE,3.5,-,N/A,,Mostly Cloudy,130,2013-09-06 18:15:00
1:35 PM,78.4,52.9,41,30.17,10.0,South,6.9,-,N/A,,Scattered Clouds,170,2013-09-06 18:35:00
1:55 PM,79.0,53.2,41,30.16,10.0,South,3.5,-,N/A,,Scattered Clouds,190,2013-09-06 18:55:00
2:15 PM,78.8,53.6,42,30.15,10.0,South,3.5,-,N/A,,Mostly Cloudy,180,2013-09-06 19:15:00
2:35 PM,80.2,54.9,41,30.14,10.0,Calm,Calm,-,N/A,,Scattered Clouds,0,2013-09-06 19:35:00
2:55 PM,80.6,56.1,43,30.13,10.0,SSE,3.5,-,N/A,,Clear,150,2013-09-06 19:55:00
3:15 PM,80.4,57.0,45,30.13,10.0,SSW,8.1,-,N/A,,Clear,200,2013-09-06 20:15:00
3:35 PM,80.1,57.7,46,30.12,10.0,SSE,3.5,-,N/A,,Scattered Clouds,160,2013-09-06 20:35:00
3:55 PM,79.3,58.3,48,30.12,10.0,WSW,3.5,-,N/A,,Mostly Cloudy,240,2013-09-06 20:55:00
4:15 PM,80.2,58.8,48,30.11,10.0,South,6.9,-,N/A,,Overcast,170,2013-09-06 21:15:00
4:35 PM,80.1,59.2,49,30.11,10.0,SSE,4.6,-,N/A,,Overcast,150,2013-09-06 21:35:00
4:55 PM,80.2,59.2,48,30.10,10.0,South,4.6,-,N/A,,Overcast,190,2013-09-06 21:55:00
5:15 PM,80.8,59.2,48,30.10,10.0,SE,4.6,-,N/A,,Overcast,140,2013-09-06 22:15:00
5:35 PM,80.1,59.7,50,30.10,10.0,SE,5.8,-,N/A,,Overcast,140,2013-09-06 22:35:00
5:55 PM,79.5,59.9,51,30.10,10.0,SE,4.6,-,N/A,,Mostly Cloudy,130,2013-09-06 22:55:00
6:15 PM,78.6,60.6,54,30.09,10.0,SE,3.5,-,N/A,,Scattered Clouds,140,2013-09-06 23:15:00
6:35 PM,77.5,61.3,57,30.08,10.0,ESE,3.5,-,N/A,,Clear,120,2013-09-06 23:35:00
6:55 PM,75.7,62.6,64,30.09,10.0,ESE,4.6,-,N/A,,Clear,110,2013-09-06 23:55:00
7:15 PM,73.4,62.2,68,30.08,10.0,ESE,4.6,-,N/A,,Clear,110,2013-09-07 00:15:00
7:35 PM,71.1,62.6,75,30.08,10.0,ESE,5.8,-,N/A,,Clear,120,2013-09-07 00:35:00
7:55 PM,69.8,62.8,78,30.08,10.0,ESE,4.6,-,N/A,,Clear,120,2013-09-07 00:55:00
8:15 PM,68.2,63.7,85,30.08,10.0,ESE,4.6,-,N/A,,Clear,120,2013-09-07 01:15:00
8:35 PM,67.6,63.5,87,30.08,10.0,ESE,4.6,-,N/A,,Clear,120,2013-09-07 01:35:00
8:55 PM,66.7,63.0,88,30.08,10.0,SSE,4.6,-,N/A,,Clear,150,2013-09-07 01:55:00
9:15 PM,65.8,62.8,90,30.08,10.0,SSE,4.6,-,N/A,,Clear,150,2013-09-07 02:15:00
9:35 PM,65.1,62.1,90,30.08,10.0,SE,4.6,-,N/A,,Clear,140,2013-09-07 02:35:00
9:55 PM,64.9,62.1,90,30.07,10.0,SSE,5.8,-,N/A,,Clear,160,2013-09-07 02:55:00
10:15 PM,65.8,62.1,88,30.07,10.0,SSE,5.8,-,N/A,,Clear,150,2013-09-07 03:15:00
10:35 PM,66.2,61.5,85,30.06,10.0,SSE,4.6,-,N/A,,Clear,160,2013-09-07 03:35:00
10:55 PM,65.3,61.0,86,30.06,10.0,SSE,4.6,-,N/A,,Clear,160,2013-09-07 03:55:00
11:15 PM,64.9,60.4,85,30.06,10.0,SSE,4.6,-,N/A,,Clear,160,2013-09-07 04:15:00
11:35 PM,64.9,59.9,84,30.05,10.0,SSE,4.6,-,N/A,,Clear,160,2013-09-07 04:35:00
11:55 PM,64.4,59.4,84,30.06,10.0,SSE,4.6,-,N/A,,Clear,150,2013-09-07 04:55:00